RRR4238 SKCG-KMSY

Flight info

Callsign RRR4238
Flight time N/A
Altitude 24000
Route VARO2A VARON DCT OPLOS DCT ARNAL DCT CISNE A321 ILUBA L333 HRV
Aircraft A400/H-SGHIRWXY/LB1

Departure

Time 2026-05-05 15:41
Airport Rafael Nuñez International Airport (SKCG)

Arrival

Time N/A
Airport Louis Armstrong New Orleans International Airport (KMSY)
Time Latitude Longitude Altitude Speed Heading
2026-05-05 15:30 10.44613 -75.51105 60 ft 0 kts 306°
2026-05-05 15:37 10.44619 -75.51112 55 ft 3 kts 312°
2026-05-05 15:37 10.44644 -75.51132 58 ft 6 kts 325°
2026-05-05 15:37 10.44660 -75.51176 53 ft 10 kts 287°
2026-05-05 15:38 10.44649 -75.51269 53 ft 17 kts 212°
2026-05-05 15:38 10.44511 -75.51278 53 ft 24 kts 182°
2026-05-05 15:38 10.44327 -75.51286 58 ft 28 kts 181°
2026-05-05 15:38 10.44141 -75.51292 54 ft 25 kts 182°
2026-05-05 15:39 10.43970 -75.51299 55 ft 25 kts 182°
2026-05-05 15:39 10.43797 -75.51306 59 ft 25 kts 182°
2026-05-05 15:39 10.43623 -75.51314 54 ft 25 kts 183°
2026-05-05 15:39 10.43448 -75.51322 59 ft 25 kts 182°
2026-05-05 15:40 10.43274 -75.51327 58 ft 25 kts 179°
2026-05-05 15:40 10.43144 -75.51237 59 ft 21 kts 152°
2026-05-05 15:40 10.43069 -75.51282 56 ft 14 kts 264°
2026-05-05 15:40 10.43122 -75.51334 53 ft 12 kts
2026-05-05 15:41 10.43319 -75.51326 60 ft 68 kts
2026-05-05 15:41 10.44133 -75.51293 74 ft 157 kts
2026-05-05 15:41 10.45272 -75.51247 613 ft 167 kts
2026-05-05 15:41 10.46470 -75.51176 1279 ft 176 kts
2026-05-05 15:42 10.47775 -75.51119 1846 ft 203 kts
2026-05-05 15:42 10.49310 -75.51061 2172 ft 238 kts
2026-05-05 15:42 10.51066 -75.50994 2638 ft 262 kts
2026-05-05 15:42 10.52902 -75.50978 3406 ft 272 kts 357°
2026-05-05 15:43 10.54735 -75.51508 4309 ft 278 kts 333°
2026-05-05 15:43 10.56405 -75.52518 5266 ft 279 kts 333°
2026-05-05 15:43 10.58160 -75.53418 6112 ft 285 kts 335°
2026-05-05 15:43 10.59978 -75.54285 6915 ft 291 kts 336°
2026-05-05 15:44 10.61834 -75.55150 7750 ft 295 kts 337°
2026-05-05 15:44 10.63699 -75.56012 8597 ft 299 kts 337°
2026-05-05 15:44 10.65632 -75.56903 9469 ft 303 kts 338°
2026-05-05 15:44 10.67545 -75.57782 10234 ft 310 kts 338°
2026-05-05 15:45 10.69576 -75.58714 10591 ft 330 kts 338°
2026-05-05 15:45 10.71726 -75.59701 10901 ft 346 kts 338°
2026-05-05 15:45 10.73951 -75.60724 11389 ft 353 kts 338°
2026-05-05 15:45 10.76205 -75.61761 11967 ft 357 kts 338°
2026-05-05 15:46 10.78468 -75.62802 12548 ft 360 kts 338°
2026-05-05 15:46 10.80778 -75.63865 13149 ft 363 kts 338°